Wind_Speed
42 43 43 43 43 43 43 43 44 44 45 45 46 46 46 46 45 44 44 44 44 43 44 45 45 45 44 44 44 44 42 42 42 42 42 42 42 41 40 39 40 39 39
43 44 44 44 44 44 44 44 44 44 46 46 47 47 47 47 47 47 47 46 46 46 45 45 45 46 46 45 45 46 44 44 43 43 43 43 43 43 43 42 41 40 40
43 44 45 45 45 45 45 45 45 46 46 47 48 48 49 48 48 48 48 48 48 47 48 46 45 46 47 46 46 47 46 45 45 44 44 43 43 44 44 43 42 42 41
43 43 44 45 45 46 46 46 47 47 47 47 49 50 50 50 49 49 49 49 49 49 49 49 47 47 47 48 48 47 47 47 47 46 46 46 46 45 44 44 44 44 43
42 43 43 44 45 45 46 47 48 49 48 49 50 50 51 51 51 51 51 51 52 51 50 50 49 48 49 49 48 48 48 48 48 48 48 47 47 46 46 45 45 45 45
41 41 42 44 44 45 46 47 49 50 50 51 51 51 52 52 52 52 53 53 54 53 52 52 51 50 50 51 51 50 50 50 50 50 49 49 49 48 47 47 47 47 47
40 41 42 43 44 45 46 47 48 49 50 51 52 53 53 54 53 53 53 54 55 55 54 54 54 53 52 52 53 53 52 52 52 52 51 51 50 50 50 49 49 49 49
40 41 42 43 44 45 46 47 48 49 49 51 52 53 54 55 55 55 54 54 55 57 57 57 56 55 55 54 54 55 54 53 53 53 52 52 52 52 52 52 51 51 51
40 41 42 42 43 44 45 46 47 48 49 50 51 52 54 55 55 56 55 54 55 56 57 57 57 57 56 56 56 56 56 56 55 55 54 53 53 53 52 52 53 53 52
41 41 42 42 42 43 44 45 45 46 48 49 50 51 52 54 55 56 56 55 55 55 56 57 57 57 57 57 57 56 55 56 55 55 55 55 55 54 54 53 54 54 53
39 40 40 41 41 42 43 44 45 45 46 48 49 50 51 53 55 56 56 56 57 57 57 58 57 57 58 59 58 58 59 58 57 57 56 55 55 55 54 53 53 54 54
39 39 40 41 41 41 42 43 43 44 45 46 47 48 48 51 53 55 56 57 57 57 57 58 59 58 58 60 61 60 60 59 59 58 58 56 55 55 55 54 55 55 54
39 40 40 40 41 41 41 41 42 43 44 45 46 47 48 49 50 53 54 55 56 56 57 58 59 59 59 61 61 62 62 60 60 60 59 57 57 55 55 56 56 56 56
41 40 40 40 40 40 40 40 41 42 42 44 45 46 47 48 49 50 51 53 54 54 55 56 58 59 60 61 60 61 61 61 60 60 59 59 58 57 57 57 57 56 56
41 41 41 40 40 40 40 41 41 42 42 42 42 44 45 47 49 50 51 52 53 54 55 55 56 57 58 59 59 59 60 60 60 59 59 60 59 59 58 58 58 57 57
40 40 40 40 40 41 40 40 41 41 41 42 42 44 45 46 48 50 51 52 52 54 55 55 55 55 56 57 58 59 59 59 59 60 59 60 60 60 59 59 58 58 57
40 40 40 40 40 41 41 40 40 41 41 41 43 44 45 46 48 49 50 51 51 52 54 54 54 55 55 55 56 58 59 59 59 59 58 58 59 59 59 58 57 56 57
40 40 40 40 40 40 40 40 40 41 41 41 42 43 44 45 46 47 48 49 49 51 53 53 54 54 54 55 56 57 59 59 58 58 58 58 58 58 58 58 57 56 56
39 39 39 40 40 39 40 40 40 41 41 41 42 42 42 43 44 46 47 47 48 49 51 52 53 54 53 54 55 56 57 58 58 59 58 56 56 56 56 57 58 57 56
38 38 38 38 38 39 39 39 40 40 40 40 40 41 41 42 42 43 44 45 46 48 49 50 51 52 53 53 54 54 55 56 57 58 57 55 55 55 56 56 57 57 57
38 38 38 38 37 37 37 37 38 38 39 39 39 39 40 41 41 42 42 43 44 45 46 48 48 50 51 52 52 52 52 53 54 55 56 56 55 55 56 57 57 57 57
39 38 38 37 37 36 36 36 36 36 36 37 38 38 38 40 40 41 42 43 44 44 44 45 46 47 49 50 50 51 51 52 52 53 54 55 56 56 56 56 56 57 57
38 38 37 37 36 36 35 35 35 35 34 35 36 36 37 38 40 41 41 42 43 43 43 44 45 45 46 47 48 48 49 50 50 51 52 53 55 56 56 56 56 56 57
37 37 37 37 36 36 36 35 35 35 35 34 34 35 35 36 38 38 39 40 41 42 42 43 43 44 45 45 46 47 47 48 48 49 49 50 52 53 54 55 56 56 56
37 37 36 36 36 36 36 36 35 35 35 35 35 34 35 35 36 37 37 39 40 41 41 41 42 43 43 44 44 45 46 46 47 48 48 48 48 49 50 51 53 53 54
36 36 35 35 35 35 35 35 35 35 35 35 35 35 35 35 35 36 36 37 38 38 39 39 40 41 41 42 43 43 43 45 46 46 46 47 47 47 48 49 50 51 52
Wind_Direction
265 265 265 265 264 262 260 259 257 256 254 251 250 250 250 249 250 251 250 250 250 250 250 248 248 248 247 247 248 248 250 251 251 252 253 254 254 254 255 255 254 254 254
267 266 265 264 263 261 260 259 258 257 255 252 251 250 250 250 249 250 249 248 249 249 249 249 250 249 248 248 248 249 250 251 251 252 254 254 254 255 255 255 255 254 254
268 267 266 265 264 262 261 260 258 257 256 254 252 251 250 250 250 249 248 248 248 248 248 249 250 250 249 250 250 251 251 251 252 252 254 255 256 257 255 255 255 254 254
268 267 266 265 264 262 261 261 259 258 257 255 254 252 251 250 250 249 249 248 246 247 248 248 249 250 250 249 249 249 250 252 253 253 254 256 257 256 254 254 255 255 254
271 268 266 264 264 263 261 261 259 258 257 256 255 252 251 250 250 250 250 249 248 248 248 248 249 250 251 249 247 249 250 250 252 253 255 255 256 255 255 255 255 255 255
274 271 268 266 264 264 262 261 260 259 258 256 255 254 251 250 250 250 250 250 249 248 248 248 248 249 251 250 248 249 250 251 252 253 254 255 255 255 255 255 255 256 255
275 273 272 269 267 266 264 262 261 259 258 256 256 254 252 250 249 250 250 250 250 249 248 248 248 249 250 250 250 251 252 252 252 254 254 255 255 256 255 255 255 255 255
276 275 274 272 270 268 266 263 261 260 258 257 257 255 252 251 250 250 250 251 250 249 249 249 249 250 250 251 251 252 252 253 254 254 255 256 257 256 254 254 254 254 253
279 276 275 274 272 270 267 265 263 261 259 258 257 256 254 252 251 250 250 250 250 250 250 250 250 250 250 251 252 254 253 254 253 254 255 255 256 256 254 253 252 253 253
281 280 277 275 274 272 269 267 265 264 262 260 258 258 256 254 252 251 250 250 251 251 251 251 250 251 250 250 252 253 254 254 254 254 256 255 255 255 255 254 252 252 252
283 280 279 276 274 273 271 269 267 265 263 261 259 258 257 255 253 252 251 251 252 252 252 252 251 252 251 250 251 253 254 255 254 255 256 255 255 254 254 253 252 250 251
284 282 280 278 276 275 273 271 269 266 264 262 259 258 258 256 254 252 252 251 253 253 252 252 251 252 252 252 252 253 254 255 255 255 255 255 255 254 253 253 252 251 251
285 283 280 278 277 276 274 272 269 267 265 263 260 259 258 257 255 254 254 252 253 253 253 253 252 252 253 253 253 253 254 255 255 255 254 254 254 253 253 253 252 251 251
284 283 282 279 277 276 274 272 271 269 267 264 262 261 259 257 256 255 254 254 253 253 253 253 253 253 253 254 255 255 255 255 254 254 254 253 253 253 253 253 252 252 252
284 282 281 279 278 276 275 272 271 270 267 265 264 262 260 258 256 255 254 254 254 253 253 253 253 253 254 254 255 255 256 254 254 254 254 253 253 253 254 254 253 253 253
284 282 280 279 278 277 275 274 271 270 268 266 264 263 261 259 257 256 255 254 254 253 253 253 254 255 255 255 255 255 254 254 254 255 254 253 252 253 254 254 253 252 253
284 283 281 280 279 277 276 274 272 270 269 268 265 264 262 260 258 256 256 256 255 254 253 253 254 254 255 256 255 254 254 254 254 255 254 253 252 253 253 253 252 252 252
285 284 283 281 279 277 276 275 273 271 270 269 267 265 263 262 259 257 257 257 256 255 254 254 255 255 256 256 255 255 254 254 254 254 254 253 253 252 252 251 251 251 252
287 285 284 282 279 278 277 276 274 273 271 269 268 266 264 263 262 260 259 259 258 258 257 256 255 255 256 257 256 255 255 254 253 253 253 252 252 251 251 251 251 252 252
288 286 286 285 283 279 277 276 275 274 273 271 269 267 265 264 263 262 261 260 261 261 260 258 257 256 257 257 257 256 256 254 253 252 251 250 251 251 251 251 252 252 252
290 288 287 287 285 282 279 278 277 276 274 271 270 269 267 266 264 263 263 262 263 263 262 259 258 258 257 257 257 256 255 253 251 250 250 250 251 252 252 252 252 252 251
291 289 287 286 285 283 281 280 278 277 274 271 270 269 268 267 266 266 266 265 264 263 262 261 259 259 258 257 257 256 255 253 252 250 250 250 251 252 252 252 251 251 252
290 288 287 286 285 284 282 280 278 275 274 272 271 270 270 270 269 268 267 266 265 264 263 262 260 259 258 257 257 256 254 253 252 251 250 251 251 252 252 252 252 252 252
290 288 286 285 284 283 282 280 278 276 275 275 274 273 272 271 271 270 268 267 266 265 264 262 260 259 258 257 256 255 254 253 252 252 251 250 250 251 252 252 252 252 253
291 289 287 286 284 283 283 281 279 278 276 276 276 274 274 274 273 272 271 269 268 267 266 264 261 259 257 256 256 255 253 252 252 251 250 250 250 251 252 251 252 252 252
291 290 288 287 286 284 283 282 280 278 277 276 275 274 275 275 274 273 272 271 269 267 266 265 262 259 258 256 255 253 253 252 252 252 251 250 250 251 252 252 252 252 252
Height
5674 5675 5675 5675 5676 5678 5679 5681 5682 5684 5686 5688 5691 5694 5697 5700 5703 5705 5708 5711 5714 5717 5720 5723 5726 5729 5733 5737 5741 5744 5748 5751 5754 5757 5759 5761 5764 5766 5769 5771 5773 5775 5778
5663 5663 5664 5665 5665 5667 5668 5669 5671 5673 5675 5677 5680 5683 5686 5689 5692 5694 5697 5700 5703 5706 5709 5713 5716 5719 5722 5726 5730 5734 5738 5741 5744 5747 5749 5752 5754 5756 5759 5761 5764 5766 5768
5652 5652 5652 5653 5654 5655 5656 5658 5659 5661 5663 5666 5668 5671 5674 5677 5680 5683 5686 5689 5692 5695 5698 5702 5705 5708 5711 5715 5719 5723 5727 5730 5733 5736 5739 5741 5744 5747 5749 5751 5754 5756 5758
5640 5640 5641 5642 5643 5644 5645 5646 5648 5649 5651 5653 5656 5658 5662 5665 5668 5671 5674 5677 5680 5683 5687 5690 5694 5697 5700 5704 5707 5711 5715 5719 5722 5725 5727 5730 5733 5736 5738 5740 5743 5746 5748
5629 5629 5630 5630 5631 5631 5633 5634 5635 5637 5638 5641 5643 5646 5649 5652 5655 5658 5662 5665 5668 5671 5675 5678 5682 5685 5688 5692 5696 5699 5703 5707 5710 5713 5715 5718 5720 5723 5726 5730 5732 5735 5738
5618 5618 5618 5618 5619 5619 5620 5621 5622 5624 5625 5628 5630 5632 5635 5639 5642 5645 5649 5652 5655 5658 5662 5666 5670 5673 5676 5680 5683 5687 5690 5694 5697 5700 5703 5705 5708 5711 5714 5717 5720 5723 5726
5607 5606 5606 5606 5607 5607 5607 5608 5609 5611 5612 5614 5616 5619 5621 5625 5628 5631 5635 5639 5642 5645 5649 5652 5656 5660 5663 5666 5670 5673 5677 5680 5684 5687 5690 5693 5696 5698 5701 5704 5707 5710 5713
5596 5595 5594 5594 5594 5594 5595 5595 5596 5597 5599 5600 5602 5605 5607 5610 5614 5618 5621 5624 5628 5632 5635 5639 5642 5646 5650 5653 5656 5659 5663 5666 5669 5673 5676 5679 5682 5685 5688 5691 5694 5698 5701
5585 5583 5582 5582 5581 5582 5582 5582 5583 5584 5585 5586 5588 5590 5593 5596 5599 5603 5607 5610 5614 5617 5621 5624 5628 5632 5635 5639 5643 5646 5649 5652 5655 5658 5661 5664 5667 5670 5673 5676 5680 5684 5688
5573 5572 5571 5570 5569 5569 5569 5569 5569 5570 5571 5572 5574 5576 5578 5581 5584 5588 5592 5596 5599 5603 5606 5610 5614 5617 5621 5624 5628 5631 5634 5637 5640 5643 5646 5649 5652 5655 5658 5661 5665 5669 5673
5562 5561 5559 5558 5557 5557 5556 5556 5557 5557 5558 5559 5560 5562 5564 5567 5570 5573 5577 5581 5585 5588 5592 5596 5599 5602 5606 5609 5613 5616 5619 5622 5625 5628 5631 5634 5637 5640 5643 5646 5650 5654 5658
5551 5549 5548 5546 5545 5545 5544 5544 5544 5544 5545 5546 5547 5549 5551 5553 5555 5559 5562 5566 5569 5573 5576 5580 5584 5587 5590 5594 5597 5601 5604 5607 5610 5613 5616 5619 5622 5625 5629 5632 5636 5639 5643
5540 5538 5536 5535 5534 5533 5532 5532 5532 5532 5532 5533 5534 5536 5537 5539 5541 5544 5547 5551 5554 5558 5561 5564 5568 5572 5575 5578 5582 5585 5588 5591 5594 5597 5601 5604 5607 5611 5613 5617 5621 5625 5629
5528 5526 5524 5523 5522 5521 5521 5520 5520 5520 5520 5520 5521 5522 5524 5526 5528 5530 5533 5535 5539 5542 5545 5548 5552 5556 5559 5562 5565 5568 5571 5575 5578 5581 5585 5588 5592 5595 5598 5602 5606 5610 5614
5517 5515 5513 5512 5510 5510 5509 5508 5508 5508 5508 5508 5508 5509 5510 5512 5514 5516 5518 5521 5523 5526 5530 5533 5536 5539 5542 5545 5548 5552 5555 5559 5562 5565 5569 5573 5576 5579 5582 5586 5590 5594 5598
5505 5503 5501 5500 5499 5498 5497 5496 5496 5495 5495 5495 5496 5496 5497 5498 5500 5502 5504 5506 5508 5511 5514 5517 5520 5523 5526 5529 5532 5535 5539 5542 5546 5549 5553 5556 5560 5563 5567 5570 5574 5579 5583
5494 5492 5490 5488 5487 5486 5485 5484 5484 5483 5483 5483 5483 5483 5483 5484 5486 5487 5489 5491 5493 5495 5498 5501 5503 5506 5509 5512 5515 5518 5522 5525 5529 5532 5536 5540 5543 5547 5551 5555 5558 5563 5567
5482 5480 5478 5477 5475 5474 5473 5472 5471 5470 5470 5470 5470 5470 5470 5471 5472 5473 5474 5476 5478 5480 5482 5485 5488 5490 5493 5496 5499 5502 5505 5509 5512 5516 5519 5523 5527 5531 5535 5539 5543 5547 5552
5471 5469 5467 5465 5464 5462 5461 5460 5459 5458 5457 5457 5457 5457 5457 5457 5458 5459 5460 5462 5463 5465 5467 5469 5472 5475 5477 5480 5482 5485 5488 5492 5496 5499 5503 5507 5511 5516 5519 5523 5528 5532 5536
5460 5458 5456 5453 5452 5450 5449 5448 5447 5445 5445 5444 5444 5444 5444 5445 5445 5446 5447 5448 5449 5450 5451 5454 5456 5459 5462 5463 5466 5468 5472 5476 5480 5484 5488 5492 5496 5499 5503 5507 5512 5516 5521
5449 5447 5445 5443 5440 5438 5437 5436 5434 5433 5432 5432 5432 5431 5431 5432 5432 5433 5434 5435 5436 5436 5438 5440 5442 5444 5446 5448 5450 5452 5455 5459 5463 5467 5472 5476 5480 5483 5487 5491 5496 5500 5504
5438 5436 5433 5432 5429 5427 5425 5424 5423 5422 5421 5420 5420 5419 5419 5419 5419 5420 5421 5421 5422 5423 5424 5425 5427 5429 5431 5432 5434 5437 5440 5443 5447 5452 5456 5460 5464 5468 5471 5475 5480 5483 5487
5427 5425 5422 5420 5418 5416 5414 5413 5412 5411 5410 5409 5408 5408 5407 5407 5407 5407 5408 5408 5408 5409 5410 5411 5413 5415 5416 5418 5420 5422 5425 5428 5432 5437 5441 5444 5448 5452 5455 5460 5463 5467 5471
5416 5414 5411 5409 5407 5405 5403 5402 5401 5400 5399 5398 5397 5396 5396 5395 5395 5395 5395 5395 5395 5396 5396 5397 5399 5400 5402 5404 5406 5408 5411 5414 5418 5422 5425 5429 5432 5436 5440 5444 5447 5451 5455
5405 5403 5400 5398 5396 5394 5392 5391 5390 5389 5388 5387 5386 5385 5384 5384 5383 5383 5382 5382 5382 5382 5383 5384 5385 5386 5388 5390 5392 5394 5397 5400 5404 5407 5411 5414 5418 5421 5424 5428 5432 5435 5439
5395 5392 5389 5387 5385 5383 5381 5380 5378 5377 5376 5375 5374 5374 5373 5372 5372 5371 5371 5369 5370 5370 5370 5370 5371 5373 5375 5376 5379 5381 5384 5387 5390 5393 5397 5400 5403 5407 5410 5413 5417 5420 5423